| time (UTC) | temp C | wind direction | speed KPH | gust KPH | rain 1hr cm | rain 24hr cm | rain mn cm | humidity % | barometer mb |
| 20260505041504 | 18 | 220 | 8.0 | 17.7 | 0.00 | 0.00 | 0.00 | 61 | 1007.9 |
| 20260505041003 | 18 | 226 | 9.7 | 12.9 | 0.00 | 0.00 | 0.00 | 62 | 1008.0 |
| 20260505040505 | 18 | 216 | 8.0 | 16.1 | 0.00 | 0.00 | 0.00 | 61 | 1008.2 |
| 20260505035504 | 18 | 208 | 11.3 | 14.5 | 0.00 | 0.00 | 0.00 | 61 | 1008.1 |
| 20260505035005 | 18 | 209 | 8.0 | 14.5 | 0.00 | 0.00 | 0.00 | 61 | 1007.9 |
| 20260505034504 | 18 | 212 | 6.4 | 14.5 | 0.00 | 0.00 | 0.00 | 61 | 1007.8 |
| 20260505034003 | 18 | 211 | 11.3 | 16.1 | 0.00 | 0.00 | 0.00 | 61 | 1007.8 |
| 20260505033505 | 18 | 204 | 11.3 | 16.1 | 0.00 | 0.00 | 0.00 | 61 | 1007.9 |
| 20260505033003 | 18 | 202 | 8.0 | 16.1 | 0.00 | 0.00 | 0.00 | 61 | 1007.8 |
| 20260505032505 | 18 | 210 | 8.0 | 16.1 | 0.00 | 0.00 | 0.00 | 62 | 1008.0 |
| 20260505032004 | 18 | 225 | 8.0 | 12.9 | 0.00 | 0.00 | 0.00 | 62 | 1007.6 |
| 20260505030504 | 18 | 213 | 6.4 | 11.3 | 0.00 | 0.00 | 0.00 | 62 | 1007.7 |
| 20260505030005 | 18 | 212 | 8.0 | 12.9 | 0.00 | 0.00 | 0.00 | 62 | 1007.8 |
| 20260505025504 | 18 | 205 | 6.4 | 12.9 | 0.00 | 0.00 | 0.00 | 62 | 1007.7 |
| 20260505025004 | 18 | 200 | 6.4 | 11.3 | 0.00 | 0.00 | 0.00 | 62 | 1007.6 |
| 20260505024504 | 18 | 210 | 4.8 | 11.3 | 0.00 | 0.00 | 0.00 | 61 | 1007.5 |
| 20260505024004 | 18 | 214 | 4.8 | 8.0 | 0.00 | 0.00 | 0.00 | 61 | 1007.5 |
| 20260505023504 | 18 | 208 | 6.4 | 11.3 | 0.00 | 0.00 | 0.00 | 61 | 1007.5 |
| 20260505023005 | 18 | 200 | 4.8 | 11.3 | 0.00 | 0.00 | 0.00 | 61 | 1007.3 |
| 20260505022504 | 18 | 204 | 4.8 | 9.7 | 0.00 | 0.00 | 0.00 | 61 | 1007.4 |
| 20260505022004 | 18 | 212 | 4.8 | 8.0 | 0.00 | 0.00 | 0.00 | 60 | 1007.1 |
| 20260505021504 | 18 | 204 | 4.8 | 11.3 | 0.00 | 0.00 | 0.00 | 60 | 1007.2 |
| 20260505021004 | 18 | 207 | 6.4 | 11.3 | 0.00 | 0.00 | 0.00 | 60 | 1007.2 |
| 20260505020504 | 18 | 215 | 6.4 | 11.3 | 0.00 | 0.00 | 0.00 | 59 | 1007.3 |
| 20260505020004 | 18 | 216 | 6.4 | 11.3 | 0.00 | 0.00 | 0.00 | 59 | 1007.2 |
| 20260505015503 | 18 | 218 | 6.4 | 11.3 | 0.00 | 0.00 | 0.00 | 59 | 1007.1 |
| 20260505015004 | 18 | 215 | 8.0 | 11.3 | 0.00 | 0.00 | 0.00 | 59 | 1007.1 |
| 20260505014505 | 18 | 213 | 6.4 | 8.0 | 0.00 | 0.00 | 0.00 | 59 | 1007.0 |
| 20260505014004 | 19 | 221 | 4.8 | 8.0 | 0.00 | 0.00 | 0.00 | 58 | 1007.0 |
| 20260505013503 | 19 | 216 | 4.8 | 8.0 | 0.00 | 0.00 | 0.00 | 57 | 1007.1 |
| 20260505012005 | 20 | 203 | 8.0 | 12.9 | 0.00 | 0.00 | 0.00 | 57 | 1006.9 |
| 20260505011504 | 20 | 172 | 9.7 | 16.1 | 0.00 | 0.00 | 0.00 | 56 | 1007.0 |
| 20260505010504 | 20 | 213 | 8.0 | 14.5 | 0.00 | 0.00 | 0.00 | 56 | 1006.7 |
| 20260505010004 | 20 | 227 | 9.7 | 14.5 | 0.00 | 0.00 | 0.00 | 56 | 1006.9 |
| 20260505005504 | 20 | 229 | 8.0 | 12.9 | 0.00 | 0.00 | 0.00 | 55 | 1006.9 |
| 20260505005004 | 20 | 216 | 8.0 | 12.9 | 0.00 | 0.00 | 0.00 | 55 | 1007.0 |
| 20260505004505 | 20 | 208 | 6.4 | 11.3 | 0.00 | 0.00 | 0.00 | 55 | 1006.9 |
| 20260505004004 | 20 | 209 | 4.8 | 11.3 | 0.00 | 0.00 | 0.00 | 55 | 1007.0 |
| 20260505003505 | 20 | 201 | 6.4 | 14.5 | 0.00 | 0.00 | 0.00 | 54 | 1007.0 |
| 20260505003004 | 20 | 205 | 4.8 | 17.7 | 0.00 | 0.00 | 0.00 | 54 | 1007.0 |
| 20260505002504 | 20 | 220 | 4.8 | 17.7 | 0.00 | 0.00 | 0.00 | 54 | 1006.9 |
| 20260505001504 | 21 | 207 | 6.4 | 14.5 | 0.00 | 0.00 | 0.00 | 54 | 1007.1 |
| 20260505001004 | 21 | 217 | 4.8 | 16.1 | 0.00 | 0.00 | 0.00 | 53 | 1007.1 |
| 20260505000504 | 21 | 222 | 11.3 | 16.1 | 0.00 | 0.00 | 0.00 | 53 | 1006.9 |
| 20260505000004 | 21 | 205 | 12.9 | 14.5 | 0.00 | 0.00 | 0.00 | 53 | 1007.1 |
| 20260504235503 | 21 | 205 | 11.3 | 14.5 | 0.00 | 0.00 | 0.00 | 52 | 1007.1 |
| 20260504235004 | 21 | 206 | 11.3 | 16.1 | 0.00 | 0.00 | 0.00 | 52 | 1007.2 |
| 20260504234004 | 22 | 217 | 9.7 | 17.7 | 0.00 | 0.00 | 0.00 | 51 | 1007.5 |
| 20260504233004 | 22 | 226 | 9.7 | 14.5 | 0.00 | 0.00 | 0.00 | 49 | 1007.3 |
| 20260504232504 | 22 | 222 | 9.7 | 19.3 | 0.00 | 0.00 | 0.00 | 46 | 1007.2 |
| 20260504232004 | 22 | 220 | 11.3 | 19.3 | 0.00 | 0.00 | 0.00 | 47 | 1007.4 |
| 20260504231503 | 22 | 220 | 16.1 | 19.3 | 0.00 | 0.00 | 0.00 | 46 | 1007.1 |
| 20260504231004 | 22 | 234 | 14.5 | 20.9 | 0.00 | 0.00 | 0.00 | 46 | 1007.4 |
| 20260504230505 | 22 | 231 | 6.4 | 20.9 | 0.00 | 0.00 | 0.00 | 46 | 1007.7 |
| 20260504230006 | 22 | 216 | 14.5 | 24.1 | 0.00 | 0.00 | 0.00 | 46 | 1007.5 |
| 20260504225504 | 22 | 214 | 20.9 | 24.1 | 0.00 | 0.00 | 0.00 | 45 | 1007.6 |
| 20260504225004 | 23 | 230 | 14.5 | 24.1 | 0.00 | 0.00 | 0.00 | 45 | 1007.6 |
| 20260504224005 | 23 | 211 | 12.9 | 20.9 | 0.00 | 0.00 | 0.00 | 48 | 1007.4 |
| 20260504223503 | 23 | 205 | 8.0 | 19.3 | 0.00 | 0.00 | 0.00 | 48 | 1007.6 |
| 20260504222004 | 23 | 235 | 14.5 | 19.3 | 0.00 | 0.00 | 0.00 | 47 | 1007.5 |
| 20260504221004 | 23 | 225 | 16.1 | 30.6 | 0.00 | 0.00 | 0.00 | 46 | 1007.8 |
| 20260504220504 | 23 | 227 | 16.1 | 30.6 | 0.00 | 0.00 | 0.00 | 47 | 1007.6 |
| 20260504215503 | 23 | 230 | 8.0 | 20.9 | 0.00 | 0.00 | 0.00 | 49 | 1008.0 |
| 20260504215004 | 23 | 229 | 8.0 | 14.5 | 0.00 | 0.00 | 0.00 | 50 | 1007.7 |
| 20260504214505 | 23 | 232 | 8.0 | 14.5 | 0.00 | 0.00 | 0.00 | 53 | 1008.1 |
| 20260504214004 | 23 | 252 | 4.8 | 14.5 | 0.00 | 0.00 | 0.00 | 48 | 1008.0 |
| 20260504213504 | 23 | 252 | 11.3 | 19.3 | 0.00 | 0.00 | 0.00 | 47 | 1008.1 |
| 20260504213004 | 23 | 256 | 12.9 | 19.3 | 0.00 | 0.00 | 0.00 | 47 | 1008.1 |
| 20260504212004 | 23 | 263 | 11.3 | 17.7 | 0.00 | 0.00 | 0.00 | 49 | 1008.0 |
| 20260504211504 | 23 | 277 | 11.3 | 17.7 | 0.00 | 0.00 | 0.00 | 49 | 1008.4 |
| 20260504211005 | 23 | 260 | 11.3 | 17.7 | 0.00 | 0.00 | 0.00 | 48 | 1008.1 |
| 20260504210506 | 23 | 236 | 9.7 | 17.7 | 0.00 | 0.00 | 0.00 | 50 | 1008.1 |
| 20260504210005 | 23 | 238 | 12.9 | 17.7 | 0.00 | 0.00 | 0.00 | 53 | 1008.1 |
| 20260504205504 | 23 | 224 | 8.0 | 20.9 | 0.00 | 0.00 | 0.00 | 53 | 1008.2 |
| 20260504205003 | 23 | 230 | 12.9 | 20.9 | 0.00 | 0.00 | 0.00 | 50 | 1008.4 |
| 20260504204005 | 23 | 224 | 8.0 | 19.3 | 0.00 | 0.00 | 0.00 | 50 | 1008.3 |
| 20260504203505 | 23 | 227 | 11.3 | 17.7 | 0.00 | 0.00 | 0.00 | 48 | 1008.5 |
| 20260504203005 | 23 | 262 | 9.7 | 17.7 | 0.00 | 0.00 | 0.00 | 50 | 1008.6 |
| 20260504202504 | 23 | 262 | 8.0 | 17.7 | 0.00 | 0.00 | 0.00 | 51 | 1008.6 |
| 20260504201504 | 23 | 224 | 9.7 | 24.1 | 0.00 | 0.00 | 0.00 | 51 | 1008.6 |
| 20260504201005 | 23 | 216 | 11.3 | 25.7 | 0.00 | 0.00 | 0.00 | 51 | 1008.7 |
| 20260504200004 | 22 | 237 | 19.3 | 20.9 | 0.00 | 0.00 | 0.00 | 54 | 1008.9 |
| 20260504195004 | 22 | 248 | 11.3 | 16.1 | 0.00 | 0.00 | 0.00 | 53 | 1009.4 |
| 20260504194504 | 22 | 270 | 9.7 | 22.5 | 0.00 | 0.00 | 0.00 | 55 | 1009.3 |
| 20260504194003 | 22 | 282 | 11.3 | 22.5 | 0.00 | 0.00 | 0.00 | 54 | 1009.3 |
| 20260504193504 | 22 | 270 | 11.3 | 20.9 | 0.00 | 0.00 | 0.00 | 59 | 1009.4 |
| 20260504193004 | 22 | 256 | 12.9 | 24.1 | 0.00 | 0.00 | 0.00 | 58 | 1009.4 |
| 20260504192503 | 21 | 243 | 6.4 | 24.1 | 0.00 | 0.00 | 0.00 | 58 | 1009.4 |
| 20260504192004 | 21 | 232 | 19.3 | 24.1 | 0.00 | 0.00 | 0.00 | 57 | 1009.5 |
| 20260504191504 | 21 | 224 | 12.9 | 27.4 | 0.00 | 0.00 | 0.00 | 57 | 1009.4 |
| 20260504191004 | 21 | 221 | 12.9 | 27.4 | 0.00 | 0.00 | 0.00 | 58 | 1009.7 |
| 20260504190505 | 21 | 221 | 11.3 | 20.9 | 0.00 | 0.00 | 0.00 | 61 | 1009.6 |
| 20260504185504 | 21 | 229 | 11.3 | 25.7 | 0.00 | 0.00 | 0.00 | 62 | 1009.5 |
| 20260504185005 | 21 | 225 | 19.3 | 25.7 | 0.00 | 0.00 | 0.00 | 59 | 1009.5 |
| 20260504184503 | 21 | 221 | 14.5 | 24.1 | 0.00 | 0.00 | 0.00 | 61 | 1009.5 |
| 20260504184004 | 21 | 217 | 16.1 | 24.1 | 0.00 | 0.00 | 0.00 | 61 | 1009.4 |
| 20260504183005 | 21 | 222 | 14.5 | 20.9 | 0.00 | 0.00 | 0.00 | 59 | 1009.1 |
| 20260504182504 | 21 | 217 | 9.7 | 20.9 | 0.00 | 0.00 | 0.00 | 62 | 1009.4 |
| 20260504182005 | 21 | 218 | 16.1 | 20.9 | 0.00 | 0.00 | 0.00 | 60 | 1009.6 |
| 20260504181503 | 21 | 219 | 8.0 | 19.3 | 0.00 | 0.00 | 0.00 | 59 | 1009.4 |
| 20260504181004 | 20 | 214 | 14.5 | 19.3 | 0.00 | 0.00 | 0.00 | 59 | 1009.5 |
| 20260504180504 | 20 | 221 | 8.0 | 17.7 | 0.00 | 0.00 | 0.00 | 64 | 1009.7 |
| 20260504180004 | 20 | 227 | 8.0 | 17.7 | 0.00 | 0.00 | 0.00 | 61 | 1009.6 |
| 20260504175504 | 20 | 211 | 11.3 | 17.7 | 0.00 | 0.00 | 0.00 | 64 | 1009.4 |
| 20260504175005 | 19 | 204 | 8.0 | 17.7 | 0.00 | 0.00 | 0.00 | 60 | 1009.7 |
| 20260504174505 | 20 | 207 | 8.0 | 27.4 | 0.00 | 0.00 | 0.00 | 58 | 1009.4 |
| 20260504174005 | 20 | 200 | 14.5 | 27.4 | 0.00 | 0.00 | 0.00 | 57 | 1009.1 |
| 20260504173504 | 20 | 202 | 24.1 | 27.4 | 0.00 | 0.00 | 0.00 | 63 | 1009.2 |
| 20260504173004 | 20 | 213 | 8.0 | 22.5 | 0.00 | 0.00 | 0.00 | 65 | 1009.0 |
| 20260504172504 | 20 | 208 | 14.5 | 22.5 | 0.00 | 0.00 | 0.00 | 61 | 1009.1 |
| 20260504151003 | 16 | 221 | 4.8 | 16.1 | 0.00 | 0.00 | 0.00 | 69 | 1010.0 |
| 20260504141004 | 15 | 218 | 11.3 | 17.7 | 0.00 | 0.00 | 0.00 | 70 | 1010.4 |
| 20260504140505 | 15 | 216 | 14.5 | 24.1 | 0.00 | 0.00 | 0.00 | 70 | 1010.4 |
| 20260504130504 | 12 | 202 | 9.7 | 20.9 | 0.00 | 0.00 | 0.00 | 74 | 1011.2 |
| 20260504100504 | 10 | 203 | 4.8 | 9.7 | 0.00 | 0.00 | 0.00 | 68 | 1010.9 |
| 20260504082003 | 10 | 205 | 8.0 | 9.7 | 0.00 | 0.00 | 0.00 | 67 | 1011.3 |
| 20260504081004 | 10 | 216 | 3.2 | 9.7 | 0.00 | 0.00 | 0.00 | 67 | 1011.5 |
| 20260504080504 | 10 | 203 | 6.4 | 8.0 | 0.00 | 0.00 | 0.00 | 67 | 1011.5 |
| 20260504050504 | 10 | 192 | 4.8 | 6.4 | 0.00 | 0.00 | 0.00 | 67 | 1013.0 |
| 20260504050004 | 10 | 210 | 4.8 | 6.4 | 0.00 | 0.00 | 0.00 | 66 | 1013.0 |
| 20260504045504 | 10 | 203 | 3.2 | 6.4 | 0.00 | 0.00 | 0.00 | 67 | 1012.9 |
| 20260504045004 | 10 | 211 | 3.2 | 6.4 | 0.00 | 0.00 | 0.00 | 66 | 1012.9 |
| 20260504044004 | 10 | 182 | 3.2 | 6.4 | 0.00 | 0.00 | 0.00 | 66 | 1013.1 |
| 20260504043504 | 10 | 209 | 1.6 | 4.8 | 0.00 | 0.00 | 0.00 | 66 | 1013.2 |
| 20260504043004 | 10 | 210 | 3.2 | 4.8 | 0.00 | 0.00 | 0.00 | 66 | 1013.1 |
| 20260504042504 | 10 | 200 | 1.6 | 4.8 | 0.00 | 0.00 | 0.00 | 66 | 1013.0 |
| 20260504042005 | 10 | 196 | 3.2 | 4.8 | 0.00 | 0.00 | 0.00 | 66 | 1013.2 |